[[{"header":{"parameterUnit":"m.s-1","parameterCategory":1,"la1":30.2991,"la2":30.254,"lo1":-89.0895,"lo2":-89.0444,"dy":0.0017,"dx":0.0017,"nx":28,"ny":28,"refTime":"2024-08-13T03:00:00:Z","depth":0,"parameterNumber":2,"parameterNumberName":"U-component_of_WINDS"},"data":[0,0,0,0,0,0,0,0,0,0,0,0,0,0,0,0,0,0,0,0,0,0,0,0,0,0,0,0,0,0,0,0,0,0,0,0,0,0,0,0,0,0,0,0,0,0,0,0,0,0,0,0,0,0,0,0,0,0,3.2731,3.2731,0,3.2797,3.2798,3.2799,3.2711,3.2708,3.2705,3.2702,3.2773,3.2778,3.2782,0,0,0,0,0,0,0,0,0,0,0,0,0,3.253,3.2534,3.2731,3.2731,3.2732,3.2797,3.2798,3.2799,3.2712,3.2708,3.2704,3.2701,3.2771,3.2777,3.2783,0,0,0,0,0,0,0,0,0,0,0,0,0,3.2609,3.2536,3.273,3.2697,3.2694,3.2797,3.2798,3.2799,3.2713,3.2708,3.2703,3.2699,3.2769,3.2776,3.2784,3.2924,0,0,3.2806,3.2809,0,0,0,0,0,0,0,0,3.2605,3.2617,3.2701,3.2699,3.2697,3.2741,3.2753,3.2841,3.2714,3.2706,3.2702,3.2697,3.2766,3.2774,3.2797,3.2927,3.293,3.2806,3.2811,3.2814,3.2816,0,0,0,0,0,0,0,3.26,3.2613,3.2757,3.2702,3.27,3.2679,3.2685,3.277,3.2762,3.2706,3.27,3.2709,3.2764,3.279,3.2798,3.2931,3.2806,3.2813,3.2817,3.282,3.3182,3.3187,0,0,0,0,0,0,3.2598,3.2609,3.2755,3.2759,3.2638,3.2686,3.2693,3.2732,3.2761,3.2761,3.2713,3.2705,3.278,3.2789,3.28,3.2967,3.2814,3.2821,3.2825,3.3176,3.3183,3.3188,0,0,0,0,0,0,3.2594,3.2612,3.2752,3.2683,3.2699,3.2695,3.2739,3.2736,3.2761,3.2766,3.2764,3.274,3.2776,3.279,3.2894,3.2968,3.2824,3.2831,3.317,3.3178,3.3186,3.3302,0,0,0,0,0,0,3.2588,3.2611,3.2663,3.2684,3.2703,3.2845,3.2744,3.274,3.2773,3.2763,3.2791,3.2791,3.2774,3.2883,3.2901,3.2976,3.2836,3.3164,3.3174,3.3183,3.3292,3.3313,3.3331,0,0,0,0,0,3.2582,3.2693,3.2666,3.2684,3.2768,3.2849,3.286,3.2837,3.278,3.2833,3.2837,3.279,3.2957,3.2895,3.2914,3.2992,3.3159,3.3171,3.3182,3.3283,3.3309,3.3331,0,0,0,0,0,0,3.2681,3.2695,3.2666,3.2787,3.2818,3.2834,3.29,3.2865,3.2912,3.2901,3.287,3.2878,3.2989,3.3001,3.2931,3.313,3.3049,3.3065,3.3118,3.3143,3.3163,3.3158,3.2842,0,0,0,0,0,3.2718,3.2781,3.279,3.2897,3.2913,3.2905,3.2939,3.2919,3.2949,3.2962,3.2972,3.3005,3.3064,3.3104,3.3159,3.3292,3.3298,3.3356,3.3375,3.3392,3.3406,3.348,3.3506,3.3227,3.3227,3.3227,0,0,3.2793,3.2809,3.2851,3.2917,3.2938,3.3006,3.2916,3.2991,3.3041,3.2973,3.3072,3.3082,3.3116,3.3236,3.3289,3.3249,3.3485,3.3407,3.342,3.3426,3.3495,3.3521,3.3544,3.3235,3.3234,3.3233,0,0,3.2965,3.2983,3.3074,3.3097,3.313,3.3124,3.3146,3.3168,3.3172,3.3271,3.3221,3.3281,3.3384,3.3411,3.3438,3.3621,3.3582,3.364,3.3744,3.3816,3.3838,3.3857,3.3924,3.3949,3.3655,3.3655,3.3655,0,3.3055,3.3154,3.3126,3.3205,3.3237,3.3177,3.3271,3.3295,3.3344,3.3368,3.3322,3.3451,3.3469,3.3595,3.364,3.3664,3.3689,3.3637,3.3837,3.3856,3.3874,3.3937,3.3963,3.3662,3.3661,3.366,3.366,0,3.3264,3.3334,3.3404,3.3453,3.3492,3.3578,3.3564,3.3607,3.3584,3.3583,3.3685,3.3706,3.3764,3.3792,3.377,3.3916,3.3891,3.3841,3.3759,3.3908,3.3967,3.3991,3.3672,3.3669,3.3667,3.3666,0,0,3.3502,3.3534,3.3561,3.3583,3.3615,3.3669,3.3753,3.381,3.3848,3.3885,3.3955,3.4044,3.3999,3.403,3.401,3.4073,3.422,3.4016,3.4016,3.4055,3.4384,3.4422,3.4451,3.4193,3.4197,3.4201,3.4382,0,3.3675,3.3819,3.3797,3.3937,3.4001,3.3947,3.402,3.4048,3.405,3.4106,3.4107,3.4172,3.4106,3.4125,3.4184,3.4189,3.4286,3.4176,3.426,3.4263,3.4254,3.4481,3.4521,3.4691,3.4404,3.4408,3.4411,0,3.3897,3.3941,3.4088,3.4111,3.4137,3.4203,3.4255,3.4308,3.434,3.4337,3.4372,3.4341,3.4426,3.4342,3.446,3.4386,3.4419,3.4427,3.4433,3.4441,3.4347,3.4497,3.4744,3.4771,3.4447,3.4444,3.4442,0,3.4058,3.4154,3.4254,3.4275,3.4304,3.4352,3.4367,3.4393,3.443,3.4475,3.4498,3.4553,3.4583,3.4627,3.4612,3.4552,3.4734,3.4648,3.4735,3.4736,3.4776,3.4774,3.5034,3.4796,3.4795,3.4795,3.4794,0,3.4255,3.4347,3.4327,3.4389,3.4491,3.4465,3.4567,3.4575,3.4599,3.4663,3.4618,3.4679,3.4655,3.4715,3.4704,3.4804,3.4818,3.4819,3.4815,3.4824,3.4824,3.4846,3.4834,3.4802,3.48,3.4799,3.4798,0,3.4452,3.4442,3.4548,3.4567,3.4574,3.4649,3.4665,3.4724,3.4722,3.4803,3.4821,3.4818,3.4886,3.4875,3.4951,3.4944,3.507,3.5051,3.5059,3.5055,3.5143,3.5136,3.5427,3.5465,3.5201,3.5203,3.5206,0,3.4579,3.4649,3.4675,3.4714,3.4732,3.4796,3.4832,3.4809,3.485,3.4892,3.4946,3.501,3.506,3.5171,3.5177,3.5235,3.5218,3.5317,3.5227,3.5234,3.5222,3.5219,3.5226,3.5335,3.5338,3.534,3.5342,0,3.4806,3.4798,3.4852,3.4906,3.4951,3.4991,3.5028,3.5063,3.5043,3.5091,3.516,3.5199,3.5276,3.5341,3.5395,3.5411,3.5375,3.537,3.5394,3.5404,3.5407,3.5408,3.5109,3.5364,3.5362,3.536,3.5359,3.5358,3.4974,3.5033,3.5062,3.5124,3.5149,3.5184,3.5241,3.5246,3.5303,3.5363,3.5346,3.5425,3.5456,3.5526,3.5548,3.561,3.5574,3.5607,3.5616,3.5625,3.5637,3.5396,3.5619,3.5619,3.5618,3.5618,3.5617,0,3.52,3.5215,3.5273,3.5326,3.5375,3.5335,3.5373,3.5418,3.5487,3.5519,3.5569,3.5649,3.5712,3.5723,3.5783,3.5831,3.5815,3.5847,3.5844,3.5849,3.5665,3.5639,3.5859,3.5859,3.5859,3.5858,3.5858,3.5858,3.5324,3.5423,3.5419,3.5531,3.5546,3.5622,3.5648,3.5681,3.5706,3.5797,3.5849,3.5855,3.5879,3.5941,3.5997,3.5998,3.6024,3.6063,3.6058,3.5886,3.5862,3.5839,3.5815,3.6068,3.6068,3.6237,3.6239,3.624]},{"header":{"parameterUnit":"m.s-1","parameterCategory":1,"la1":30.2991,"la2":30.254,"lo1":-89.0895,"lo2":-89.0444,"dy":0.0017,"dx":0.0017,"nx":28,"ny":28,"refTime":"2024-08-13T03:00:00:Z","depth":0,"parameterNumber":3,"parameterNumberName":"V-component_of_WINDS"},"data":[0,0,0,0,0,0,0,0,0,0,0,0,0,0,0,0,0,0,0,0,0,0,0,0,0,0,0,0,0,0,0,0,0,0,0,0,0,0,0,0,0,0,0,0,0,0,0,0,0,0,0,0,0,0,0,0,0,0,-2.3072,-2.3073,0,-2.3169,-2.3171,-2.3172,-2.3193,-2.3193,-2.3192,-2.3191,-2.329,-2.3293,-2.3297,0,0,0,0,0,0,0,0,0,0,0,0,0,-2.2903,-2.2906,-2.3071,-2.3073,-2.3074,-2.3169,-2.3171,-2.3172,-2.3194,-2.3193,-2.3192,-2.3191,-2.3289,-2.3293,-2.3297,0,0,0,0,0,0,0,0,0,0,0,0,0,-2.2986,-2.2907,-2.3071,-2.3096,-2.3099,-2.3169,-2.3171,-2.3172,-2.3194,-2.3193,-2.3192,-2.3191,-2.3288,-2.3293,-2.3298,-2.3349,0,0,-2.3313,-2.3315,0,0,0,0,0,0,0,0,-2.2981,-2.2992,-2.3091,-2.3095,-2.3098,-2.3168,-2.3147,-2.3231,-2.3194,-2.3158,-2.3191,-2.319,-2.325,-2.3258,-2.3279,-2.3353,-2.3358,-2.3313,-2.3316,-2.3318,-2.332,0,0,0,0,0,0,0,-2.2975,-2.2988,-2.311,-2.3093,-2.3097,-2.3102,-2.3113,-2.3163,-2.3209,-2.3161,-2.3163,-2.3174,-2.3252,-2.3274,-2.3281,-2.3359,-2.3313,-2.3317,-2.332,-2.3322,-2.3481,-2.3482,0,0,0,0,0,0,-2.2965,-2.2983,-2.3107,-2.3113,-2.3036,-2.3106,-2.3118,-2.3147,-2.3208,-2.3217,-2.3175,-2.3175,-2.3266,-2.3276,-2.3285,-2.3349,-2.3318,-2.3323,-2.3326,-2.348,-2.3481,-2.3482,0,0,0,0,0,0,-2.2962,-2.2976,-2.3103,-2.3049,-2.3065,-2.311,-2.3142,-2.3149,-2.3171,-2.3219,-2.3227,-2.3189,-2.3266,-2.3278,-2.3333,-2.3353,-2.3325,-2.3329,-2.3478,-2.348,-2.3482,-2.3477,0,0,0,0,0,0,-2.2957,-2.2975,-2.2995,-2.3049,-2.3068,-2.3149,-2.3143,-2.3152,-2.318,-2.3181,-2.3234,-2.3242,-2.3266,-2.3325,-2.3338,-2.3359,-2.3333,-2.3476,-2.3479,-2.3481,-2.3475,-2.3478,-2.3481,0,0,0,0,0,-2.295,-2.2989,-2.2995,-2.301,-2.3094,-2.3151,-2.3161,-2.3188,-2.3181,-2.3202,-2.3232,-2.324,-2.3349,-2.3331,-2.3345,-2.3368,-2.3475,-2.3478,-2.3481,-2.3474,-2.3478,-2.3481,0,0,0,0,0,0,-2.2935,-2.2996,-2.3004,-2.3062,-2.3101,-2.3154,-2.318,-2.3191,-2.3233,-2.3232,-2.3263,-2.3275,-2.3328,-2.3354,-2.3333,-2.3421,-2.3412,-2.3418,-2.3402,-2.3406,-2.3408,-2.34,-2.3337,0,0,0,0,0,-2.2939,-2.298,-2.3031,-2.3077,-2.3096,-2.3135,-2.3161,-2.3178,-2.322,-2.3236,-2.3271,-2.3311,-2.3354,-2.3381,-2.3424,-2.348,-2.3492,-2.3503,-2.3505,-2.3507,-2.3511,-2.3543,-2.3549,-2.3492,-2.3492,-2.3492,0,0,-2.2946,-2.2984,-2.3008,-2.3075,-2.3107,-2.3148,-2.3149,-2.3193,-2.3224,-2.3243,-2.3297,-2.3324,-2.337,-2.3426,-2.3452,-2.3449,-2.353,-2.3511,-2.3512,-2.3515,-2.3547,-2.3552,-2.3557,-2.3494,-2.3493,-2.3493,0,0,-2.298,-2.3013,-2.3055,-2.3088,-2.3137,-2.3163,-2.3173,-2.3225,-2.3244,-2.3299,-2.3314,-2.3352,-2.3425,-2.3458,-2.3484,-2.3532,-2.354,-2.3545,-2.3558,-2.3589,-2.3593,-2.3597,-2.3614,-2.3619,-2.3549,-2.3549,-2.3549,0,-2.2982,-2.3046,-2.3075,-2.3118,-2.3147,-2.3167,-2.3209,-2.324,-2.33,-2.3319,-2.3315,-2.3408,-2.3441,-2.3505,-2.3516,-2.3537,-2.3549,-2.3538,-2.359,-2.3595,-2.3599,-2.3615,-2.3621,-2.3549,-2.3549,-2.3549,-2.3549,0,-2.3046,-2.309,-2.3118,-2.3176,-2.3208,-2.3251,-2.3286,-2.3315,-2.333,-2.3356,-2.3412,-2.3453,-2.3503,-2.352,-2.3535,-2.3586,-2.3583,-2.3584,-2.3575,-2.3604,-2.3619,-2.3626,-2.3549,-2.3549,-2.3549,-2.3549,0,0,-2.3072,-2.3147,-2.3156,-2.3183,-2.3239,-2.3274,-2.3318,-2.3368,-2.3392,-2.3433,-2.3471,-2.3533,-2.3535,-2.3565,-2.3584,-2.3611,-2.3646,-2.3609,-2.361,-2.3614,-2.3704,-2.3702,-2.3708,-2.3652,-2.3654,-2.3655,-2.37,0,-2.3112,-2.3191,-2.3219,-2.3284,-2.3325,-2.3345,-2.3383,-2.3422,-2.3448,-2.3487,-2.3515,-2.3559,-2.3558,-2.3576,-2.3604,-2.3635,-2.3664,-2.3633,-2.3687,-2.3688,-2.3673,-2.3717,-2.3714,-2.3755,-2.3706,-2.3707,-2.3708,0,-2.3169,-2.3212,-2.3281,-2.3333,-2.3351,-2.3385,-2.3433,-2.347,-2.3515,-2.3532,-2.3565,-2.3583,-2.3629,-2.3619,-2.3684,-2.3662,-2.3686,-2.3704,-2.3707,-2.3712,-2.3699,-2.3722,-2.3769,-2.3774,-2.3718,-2.3717,-2.3717,0,-2.318,-2.3255,-2.3306,-2.3328,-2.339,-2.3414,-2.344,-2.3484,-2.3513,-2.3555,-2.3574,-2.3622,-2.3647,-2.3683,-2.3713,-2.3703,-2.3775,-2.3767,-2.379,-2.3789,-2.3803,-2.3801,-2.3853,-2.382,-2.382,-2.382,-2.382,0,-2.3221,-2.3263,-2.3312,-2.3343,-2.339,-2.3422,-2.3468,-2.3496,-2.3535,-2.3572,-2.3593,-2.3627,-2.3665,-2.3704,-2.3727,-2.3777,-2.3789,-2.3804,-2.3809,-2.3801,-2.3799,-2.3816,-2.3814,-2.3822,-2.3821,-2.3821,-2.3821,0,-2.3241,-2.3275,-2.3332,-2.3387,-2.3401,-2.3434,-2.348,-2.3511,-2.3539,-2.3585,-2.3598,-2.3641,-2.3689,-2.3722,-2.3783,-2.3799,-2.3852,-2.3858,-2.3837,-2.384,-2.3861,-2.3858,-2.3924,-2.3934,-2.3895,-2.3896,-2.3896,0,-2.3264,-2.3297,-2.3355,-2.3381,-2.3408,-2.3451,-2.348,-2.3514,-2.3544,-2.3597,-2.3622,-2.3671,-2.3712,-2.3786,-2.3823,-2.387,-2.3876,-2.3896,-2.3883,-2.3874,-2.3876,-2.3873,-2.3876,-2.3898,-2.3898,-2.3898,-2.3898,0,-2.3302,-2.3318,-2.336,-2.3408,-2.3443,-2.3482,-2.3522,-2.3543,-2.3583,-2.3616,-2.3665,-2.3696,-2.3759,-2.3807,-2.3858,-2.3885,-2.3898,-2.3903,-2.391,-2.3902,-2.3888,-2.3895,-2.3841,-2.39,-2.39,-2.39,-2.39,-2.39,-2.3324,-2.3354,-2.34,-2.3446,-2.3479,-2.3516,-2.3548,-2.358,-2.3622,-2.3675,-2.3693,-2.3743,-2.3788,-2.3857,-2.3885,-2.3925,-2.3924,-2.3936,-2.3938,-2.394,-2.394,-2.3882,-2.3935,-2.3935,-2.3935,-2.3935,-2.3935,0,-2.3363,-2.3393,-2.3436,-2.3491,-2.3527,-2.3538,-2.3582,-2.3612,-2.3656,-2.3697,-2.3737,-2.3793,-2.384,-2.3881,-2.393,-2.3954,-2.3961,-2.3966,-2.3964,-2.397,-2.3938,-2.3926,-2.3959,-2.3959,-2.3959,-2.3959,-2.3959,-2.3959,-2.3387,-2.3438,-2.3459,-2.3527,-2.3557,-2.3607,-2.3632,-2.3666,-2.3698,-2.3761,-2.38,-2.3827,-2.3867,-2.392,-2.3963,-2.3974,-2.3991,-2.3993,-2.4005,-2.3975,-2.3972,-2.3969,-2.3958,-2.3997,-2.3997,-2.4034,-2.4034,-2.4034]}]]